Weather History for Jackson, MS

Change the Weather History Date:

Thursday, July 18, 2013

  Actual Average Record
Temperature  
Mean Temperature 80 °F 82 °F  
Max Temperature 90 °F 92 °F 104 °F (1944)
Min Temperature 70 °F 72 °F 61 °F (1967)
Degree Days  
Heating Degree Days 0 0  
Month to date heating degree days 0 0  
Since 1 June heating degree days 0 0  
Since 1 July heating degree days 0 0  
Cooling Degree Days 15 17  
Month to date cooling degree days 262 299  
Year to date cooling degree days 1027 1079  
Since 1 June cooling degree days 709 721  
Growing Degree Days 30 (Base 50)    
Moisture  
Dew Point 71 °F    
Average Humidity 80    
Maximum Humidity 100    
Minimum Humidity 59    
Precipitation  
Precipitation 0.73 in 0.16 in 2.71 in (1912)
Month to date precipitation 1.79 2.79  
Year to date precipitation 39.83 31.02  
Sea Level Pressure  
Sea Level Pressure 30.10 in    
Wind  
Wind Speed 3 mph (West)    
Max Wind Speed 17 mph    
Max Gust Speed 29 mph    
Visibility 8 miles    
Events Rain , Thunderstorm    
T = Trace of Precipitation, MM = Missing Value Source: NWS Daily Summary

Daily Weather History Graph

Daily Weather History Graph

Search for Another Location

Airport:

Trip Planner

Search our weather history database for the weather conditions in past years. The results will help you decide how hot, cold, wet, or windy it might be!

Date:

Astronomy

Jul. 18, 2013 Rise Set
Actual Time 6:06 AM CDT 8:06 PM CDT
Civil Twilight 5:38 AM CDT 8:34 PM CDT
Nautical Twilight 5:05 AM CDT 9:07 PM CDT
Astronomical Twilight 4:29 AM CDT 9:43 PM CDT
Moon 4:05 PM CDT (7/18) 1:53 AM CDT (7/18)
Length of Visible Light 14h 55m
Length of Day
14h 00m
Waxing Gibbous, 77% of the Moon is Illuminated
Jul 18
Waxing Gibbous
Jul 22
Full
Jul 29
Last Quarter
Aug 6
New
Aug 14
First Quarter

Hourly Weather History & Observations

Time (CDT) Temp. Heat Index Dew Point Humidity Pressure Visibility Wind Dir Wind Speed Gust Speed Precip Events Conditions
12:54 AM 75.0 °F - 72.0 °F 90% 30.15 in 10.0 mi Calm Calm - N/A   Clear
1:54 AM 73.9 °F - 72.0 °F 93% 30.14 in 10.0 mi Calm Calm - N/A   Clear
2:54 AM 73.9 °F - 72.0 °F 93% 30.12 in 10.0 mi Calm Calm - 0.01 in   Clear
3:54 AM 73.9 °F - 71.1 °F 91% 30.12 in 10.0 mi Calm Calm - N/A   Clear
4:54 AM 73.0 °F - 71.1 °F 93% 30.12 in 8.0 mi Calm Calm - N/A   Clear
5:54 AM 73.9 °F - 71.1 °F 91% 30.12 in 9.0 mi Calm Calm - 0.01 in   Scattered Clouds
6:50 AM 75.2 °F - 73.4 °F 94% 30.16 in 9.0 mi ENE 8.1 mph - N/A Thunderstorm Thunderstorm
6:54 AM 75.9 °F - 73.0 °F 91% 30.15 in 9.0 mi ENE 8.1 mph - N/A Thunderstorm Thunderstorm
7:13 AM 75.2 °F - 71.6 °F 89% 30.17 in 2.0 mi ENE 8.1 mph - 0.10 in Rain , Thunderstorm Thunderstorms and Rain
7:20 AM 75.2 °F - 71.6 °F 89% 30.17 in 9.0 mi East 9.2 mph - 0.11 in Rain , Thunderstorm Light Thunderstorms and Rain
7:54 AM 75.0 °F - 70.0 °F 84% 30.16 in 10.0 mi ESE 10.4 mph - 0.11 in   Mostly Cloudy
8:54 AM 73.0 °F - 70.0 °F 90% 30.16 in 10.0 mi SSE 10.4 mph - 0.00 in Rain Light Rain
9:54 AM 73.9 °F - 70.0 °F 87% 30.16 in 10.0 mi Variable 4.6 mph - 0.01 in   Mostly Cloudy
10:54 AM 77.0 °F - 70.0 °F 79% 30.17 in 10.0 mi WSW 4.6 mph - N/A   Mostly Cloudy
11:54 AM 80.1 °F 83.6 °F 71.1 °F 74% 30.14 in 10.0 mi West 5.8 mph - N/A   Scattered Clouds
12:54 PM 82.9 °F 87.5 °F 71.1 °F 67% 30.11 in 10.0 mi SSW 4.6 mph - N/A   Partly Cloudy
1:54 PM 87.1 °F 92.8 °F 71.1 °F 59% 30.09 in 10.0 mi SSW 3.5 mph - N/A   Scattered Clouds
2:54 PM 88.0 °F 94.7 °F 72.0 °F 59% 30.05 in 10.0 mi WSW 4.6 mph - N/A   Mostly Cloudy
3:54 PM 84.9 °F 90.7 °F 72.0 °F 65% 30.04 in 10.0 mi Calm Calm - N/A Thunderstorm Thunderstorm
4:15 PM 75.2 °F - 71.6 °F 89% 30.06 in 1.0 mi NW 9.2 mph - 0.06 in Rain , Thunderstorm Heavy Thunderstorms and Rain
4:18 PM 75.2 °F - 71.6 °F 89% 30.05 in 3.0 mi NW 9.2 mph - 0.22 in Rain , Thunderstorm Heavy Thunderstorms and Rain
4:52 PM 75.2 °F - 71.6 °F 89% 30.08 in 10.0 mi West 8.1 mph - 0.51 in   Mostly Cloudy
4:54 PM 75.0 °F - 72.0 °F 90% 30.07 in 10.0 mi West 8.1 mph - 0.51 in   Mostly Cloudy
5:54 PM 75.0 °F - 73.0 °F 94% 30.06 in 10.0 mi NNW 5.8 mph - 0.07 in   Mostly Cloudy
6:54 PM 77.0 °F - 72.0 °F 84% 30.05 in 10.0 mi North 5.8 mph - 0.01 in Rain Light Rain
7:54 PM 75.0 °F - 73.0 °F 94% 30.05 in 10.0 mi Calm Calm - 0.00 in   Partly Cloudy
8:54 PM 73.0 °F - 71.1 °F 93% 30.07 in 10.0 mi Calm Calm - N/A   Partly Cloudy
9:54 PM 73.0 °F - 71.1 °F 93% 30.08 in 10.0 mi Calm Calm - N/A   Partly Cloudy
10:54 PM 72.0 °F - 71.1 °F 97% 30.09 in 8.0 mi Calm Calm - N/A   Partly Cloudy
11:26 PM 71.6 °F - 71.6 °F 100% 30.08 in 2.0 mi Calm Calm - N/A   Partly Cloudy
11:29 PM 71.6 °F - 71.6 °F 100% 30.08 in 1.0 mi Calm Calm - N/A   Mist
11:38 PM 71.6 °F - 69.8 °F 94% 30.08 in 0.8 mi Calm Calm - N/A   Mist
11:52 PM 71.6 °F - 69.8 °F 94% 30.07 in 1.2 mi Calm Calm - N/A   Partly Cloudy
11:54 PM 71.1 °F - 70.0 °F 96% 30.06 in 2.5 mi Calm Calm - N/A   Partly Cloudy